Probability
0 0 0 0 0 0 0 0 0 0 0 0 0 0 0 0 0 0 0 0 0 0 0 0 0 0 0 0 0 0 1 2 3 3 2 1 0 0 0 0 0 0 0
0 0 0 0 0 0 0 0 0 0 0 0 0 0 0 0 0 0 0 0 0 0 0 0 0 0 0 0 0 0 1 2 2 3 3 2 1 0 0 0 0 0 0
0 0 0 0 0 0 0 0 0 0 0 0 0 0 0 0 0 0 0 0 0 0 0 0 0 0 0 0 0 0 1 1 1 2 3 3 2 1 0 0 0 0 0
0 0 0 0 0 0 0 0 0 0 0 0 0 0 0 0 0 0 0 0 0 0 0 0 0 0 0 0 0 0 0 0 0 1 2 3 3 3 1 0 0 0 0
0 0 0 0 0 0 0 0 0 0 0 0 0 0 0 0 0 0 0 0 0 0 0 0 0 0 0 0 0 0 0 0 0 0 1 2 3 3 2 1 0 0 0
0 0 0 0 0 0 0 0 0 0 0 0 0 0 0 0 0 0 0 0 0 0 0 0 0 0 0 0 0 0 0 0 0 1 2 2 2 3 3 2 1 0 0
0 0 0 0 0 0 0 0 0 0 0 0 0 0 0 0 0 0 0 0 0 0 0 0 0 0 0 0 0 0 0 1 1 1 2 2 2 2 3 3 2 1 0
0 0 0 0 0 0 0 0 0 0 0 0 0 0 0 0 0 0 0 0 0 0 0 0 0 0 0 0 0 0 0 1 1 0 1 2 2 2 2 3 3 1 0
0 0 0 0 0 0 0 0 0 0 0 0 0 0 0 0 0 0 0 0 0 0 0 0 0 0 0 0 0 0 0 0 0 0 0 1 1 1 2 2 3 2 1
0 0 0 0 0 0 0 0 0 0 0 0 0 0 0 0 0 0 0 0 0 0 0 0 0 0 0 0 0 0 0 0 0 0 0 0 0 1 1 2 2 2 2
0 0 0 0 0 0 0 0 0 0 0 0 0 0 0 0 0 0 0 0 0 0 0 0 0 0 0 0 0 0 0 0 0 0 0 0 0 0 1 1 2 2 2
0 0 0 0 0 0 0 0 0 0 0 0 0 0 0 0 0 0 0 0 0 0 0 0 0 0 0 0 0 0 0 0 0 0 0 0 0 0 0 1 1 1 2
0 0 0 0 0 0 0 0 0 0 0 0 0 0 0 0 0 0 0 0 0 0 0 0 0 0 0 0 0 0 0 0 0 0 0 0 0 0 0 0 0 0 1
0 0 0 0 0 0 0 0 0 0 0 0 0 0 0 0 0 0 0 0 0 0 0 0 0 0 0 0 0 0 0 0 0 0 0 0 0 0 0 0 0 0 0
0 0 0 0 0 0 0 0 0 0 0 0 0 0 0 0 0 0 0 0 0 0 0 0 0 0 0 0 0 0 0 0 0 0 0 0 0 0 0 0 0 0 0
0 0 0 0 0 0 0 0 0 0 0 0 0 0 0 0 0 0 0 0 0 0 0 0 0 0 0 0 0 0 0 0 0 0 0 0 0 0 0 0 0 0 0
0 0 0 0 0 0 0 0 0 0 0 0 0 0 0 0 0 0 0 0 0 0 0 0 0 0 0 0 0 0 0 0 0 0 0 0 0 0 0 0 0 0 0
0 0 0 0 0 0 0 0 0 0 0 0 0 0 0 0 0 0 0 0 0 0 0 0 0 0 0 0 0 0 0 0 0 0 0 0 0 0 0 0 0 0 0
0 0 0 0 0 0 0 0 0 0 0 0 0 0 0 0 0 0 0 0 0 0 0 0 0 0 0 0 0 0 0 0 0 0 0 0 0 0 0 0 0 0 0
0 0 0 0 0 0 0 0 0 0 0 0 0 0 0 0 0 0 0 0 0 0 0 0 0 0 0 0 0 0 0 0 0 0 0 0 0 0 0 0 0 0 0
0 0 0 0 0 0 0 0 0 0 0 0 0 0 0 0 0 0 0 0 0 0 0 0 0 0 0 0 0 0 0 0 0 0 0 0 0 0 0 0 0 0 0
0 0 0 0 0 0 0 0 0 0 0 0 0 0 0 0 0 0 0 0 0 0 0 0 0 0 0 0 0 0 0 0 0 0 0 0 0 0 0 0 0 0 0
0 0 0 0 0 0 0 0 0 0 0 0 0 0 0 0 0 0 0 0 0 0 0 0 0 0 0 0 0 0 0 0 0 0 0 0 0 0 0 0 0 0 0
0 0 0 0 0 0 0 0 0 0 0 0 0 0 0 0 0 0 0 0 0 0 0 0 0 0 0 0 0 0 0 0 0 0 0 0 0 0 0 0 0 0 0
0 0 0 0 0 0 0 0 0 0 0 0 0 0 0 0 0 0 0 0 0 0 0 0 0 0 0 0 0 0 0 0 0 0 0 0 0 0 0 0 0 0 0
0 0 0 0 0 0 0 0 0 0 0 0 0 0 0 0 0 0 0 0 0 0 0 0 0 0 0 0 0 0 0 0 0 0 0 0 0 0 0 0 0 0 0
Wind_Speed
1 2 1 2 2 2 2 2 2 2 2 3 3 4 4 3 4 4 4 9 10 10 10 9 8 8 8 8 8 7 7 8 8 8 8 8 7 7 7 8 8 7 7
2 2 1 2 2 2 2 1 2 2 2 2 2 3 3 2 3 4 3 5 10 10 10 10 9 9 8 8 8 8 8 8 7 7 7 7 7 7 7 7 7 8 8
2 2 2 1 1 1 2 2 2 2 2 3 2 2 3 3 3 3 3 3 4 8 10 10 10 9 8 8 7 7 7 7 7 7 7 7 7 7 7 7 7 8 8
2 2 2 1 1 1 1 2 1 2 2 2 2 2 2 2 3 3 3 3 3 4 6 9 10 9 8 8 7 7 7 7 7 7 7 7 7 7 7 7 8 8 8
2 2 1 1 1 1 1 1 1 2 2 2 2 2 2 2 2 3 3 3 3 3 3 6 9 9 9 8 8 7 7 7 7 7 7 7 7 7 8 8 8 8 8
2 2 2 1 1 1 1 1 1 2 2 2 3 3 3 2 2 2 2 2 3 3 3 4 4 6 8 7 8 7 7 7 7 7 8 8 8 8 8 8 8 8 9
2 2 2 1 1 1 1 1 1 2 2 2 3 2 3 3 3 2 2 2 3 3 3 4 3 3 4 8 9 8 8 8 8 8 8 8 8 9 9 9 9 9 10
2 2 2 2 1 2 2 1 2 1 1 1 2 2 1 2 2 2 2 2 2 2 3 3 3 3 3 3 6 8 8 9 9 9 8 9 9 9 10 10 10 10 11
2 2 2 2 2 2 2 2 2 2 2 0 1 2 3 2 1 1 1 1 2 2 2 2 2 3 3 2 3 6 8 9 9 9 9 9 10 10 10 11 11 11 12
2 2 2 3 2 2 2 2 1 1 3 2 0 0 1 2 2 1 2 1 2 1 1 2 2 2 2 2 3 6 8 9 9 10 10 10 11 11 11 12 12 12 12
2 2 2 2 2 2 2 2 1 1 1 2 2 1 1 1 1 2 2 2 2 2 1 1 1 1 1 1 2 4 7 8 9 10 10 11 11 12 12 13 13 13 13
2 2 2 2 2 2 2 2 2 2 2 1 1 1 2 2 2 2 2 2 2 2 2 1 1 1 1 1 2 6 7 8 9 10 10 11 11 12 13 13 14 14 14
2 3 3 3 2 2 2 2 2 2 2 2 2 1 1 1 2 2 2 1 2 2 2 1 2 1 1 1 2 6 6 8 10 10 11 11 12 12 13 14 14 14 14
4 4 3 3 3 3 3 2 2 2 2 2 2 2 1 1 1 2 2 2 1 2 2 3 1 2 1 2 3 6 4 9 10 11 11 12 12 12 13 13 14 14 14
3 4 4 3 3 3 3 3 2 2 2 2 2 2 2 1 1 1 2 2 2 2 3 3 2 2 2 2 4 3 4 8 10 11 11 12 12 13 13 14 14 15 15
4 4 4 4 3 3 3 3 2 2 3 2 2 2 2 1 1 1 1 1 2 3 3 2 3 3 3 3 5 3 4 9 10 11 12 12 13 13 13 14 14 15 15
5 5 5 4 4 4 4 3 3 3 3 3 2 3 2 2 2 1 1 1 2 2 4 3 2 3 3 4 4 4 4 4 5 10 12 13 13 13 13 14 14 14 15
5 5 5 5 4 4 4 5 4 4 4 4 3 3 3 2 2 2 2 2 2 2 3 4 3 3 4 4 4 5 5 4 5 9 12 12 13 13 14 15 15 14 14
5 5 5 5 5 5 4 4 4 4 4 4 4 4 4 3 3 2 3 3 2 2 2 3 4 3 3 3 4 4 4 4 5 7 9 11 13 14 14 14 14 14 14
5 5 5 5 5 4 4 4 4 4 4 3 3 4 4 4 4 4 3 3 2 2 2 2 3 3 3 3 2 3 5 4 5 4 6 8 11 13 13 14 14 13 14
5 4 4 4 4 4 4 5 5 4 4 3 3 3 4 4 5 4 3 3 3 2 2 3 3 3 3 3 3 3 4 5 5 3 4 5 5 5 6 10 12 13 14
4 4 4 5 4 4 5 7 6 5 4 4 4 3 3 3 4 5 6 5 4 4 4 4 4 4 5 4 3 3 4 4 5 2 3 5 3 5 5 4 11 14 13
4 4 4 4 4 4 6 6 6 4 4 4 4 3 3 3 3 3 3 4 4 6 6 4 5 6 5 4 3 4 4 4 5 4 3 5 3 5 5 6 13 13 13
4 4 4 4 3 4 6 6 5 4 3 3 4 4 4 3 3 3 2 2 3 3 4 3 4 5 4 3 3 4 4 5 5 3 2 4 3 5 6 6 11 12 13
4 4 3 4 4 4 6 7 6 3 3 3 3 3 4 4 5 5 3 3 3 4 4 5 6 6 7 6 4 2 2 3 4 3 1 3 3 5 5 5 6 11 12
4 4 3 3 4 4 6 7 6 3 3 3 2 3 5 6 6 6 4 4 5 5 2 2 4 5 5 5 6 3 3 3 3 4 2 2 2 3 6 4 4 5 6
Wind_Direction
94 79 58 51 48 44 36 39 45 51 60 55 67 74 65 54 50 42 25 29 33 39 42 43 45 45 44 43 45 42 44 43 41 38 36 33 29 28 23 21 16 7 355
108 101 78 61 50 47 40 49 60 54 54 66 68 76 75 67 61 54 41 27 30 34 35 35 41 36 33 32 33 35 36 36 35 31 31 27 22 19 16 13 8 4 359
114 112 96 72 54 48 51 48 51 64 63 57 56 66 75 77 71 61 53 43 26 28 31 31 31 30 27 28 30 29 26 24 23 20 22 19 17 12 9 6 2 359 353
117 109 101 94 80 73 65 58 51 69 59 53 45 40 56 70 71 68 59 50 41 26 24 30 26 24 23 23 24 21 19 17 15 10 8 7 6 360 358 353 349 347 346
120 118 115 108 103 88 73 68 53 88 80 60 58 50 47 53 57 65 64 55 47 37 26 26 24 21 18 15 14 13 13 10 9 5 2 358 355 352 350 344 341 339 338
133 133 125 115 109 100 83 74 79 85 97 92 72 53 39 50 56 57 62 59 51 43 34 27 18 13 15 11 9 6 6 6 2 3 1 358 352 347 343 339 337 334 332
140 136 134 133 128 129 134 116 122 101 76 89 78 50 29 41 56 48 50 55 44 36 37 34 27 18 8 18 13 11 7 6 6 5 5 359 355 350 343 338 333 330 329
154 149 153 161 156 137 111 108 134 121 105 96 110 107 38 357 14 29 39 52 40 35 34 31 34 29 23 14 4 9 10 6 3 358 356 353 349 346 344 340 335 330 328
167 167 174 168 162 152 153 153 169 148 159 138 101 138 149 203 295 333 5 30 25 27 16 11 21 25 30 21 357 359 3 360 357 351 348 344 342 340 337 336 335 332 329
175 174 175 166 159 154 159 175 177 172 154 166 150 51 133 152 163 274 315 342 347 344 336 345 355 3 26 21 2 355 353 354 352 348 345 341 337 333 331 329 328 328 327
180 173 167 162 165 163 170 170 167 157 164 168 165 148 108 83 133 166 252 298 316 291 280 280 295 335 5 3 342 338 342 343 342 340 338 335 332 329 328 326 324 323 322
192 183 168 168 171 172 176 178 173 174 183 163 157 160 162 165 178 171 211 253 275 279 274 257 246 267 298 318 323 330 331 335 333 332 330 329 327 326 323 321 320 319 319
201 198 178 178 180 182 178 172 169 187 182 169 175 185 187 198 167 162 174 241 280 290 276 264 241 249 285 294 306 321 321 325 325 325 323 323 322 321 319 317 316 316 315
203 192 184 185 187 182 177 171 172 187 171 176 180 179 180 199 170 171 167 169 275 295 272 264 268 241 281 290 307 321 313 315 317 319 318 318 317 316 315 314 314 313 311
185 177 177 177 181 178 178 172 180 188 169 175 179 182 187 192 178 181 171 174 182 241 270 263 269 275 293 288 305 307 301 304 310 313 312 312 313 313 312 312 312 311 308
176 172 177 178 181 185 179 172 177 177 165 175 175 174 187 185 171 171 179 190 196 204 246 260 254 280 292 295 302 303 292 305 304 308 310 309 310 311 311 310 309 308 307
178 179 181 181 185 188 181 176 183 173 177 184 186 182 193 179 176 184 179 185 196 201 241 269 267 282 276 288 303 298 291 292 298 305 307 306 308 308 309 309 307 306 306
183 183 180 183 189 190 186 183 187 183 183 189 193 186 198 185 190 195 193 204 214 213 221 262 283 281 270 282 295 298 300 298 297 300 303 303 306 308 307 306 305 304 305
182 181 179 185 191 191 189 191 189 187 188 195 197 199 204 189 203 207 205 210 214 223 226 247 277 281 282 291 302 297 297 295 298 299 301 303 305 307 306 305 304 303 303
183 185 185 187 191 190 188 186 185 184 188 198 200 204 206 202 206 207 212 213 208 217 231 250 272 286 284 287 293 300 309 308 304 302 298 302 301 304 303 303 304 304 303
186 184 178 185 187 188 194 187 184 182 186 197 203 211 218 220 222 220 219 210 202 214 233 253 266 280 278 291 290 292 294 307 295 283 303 300 301 299 299 301 301 300 301
181 177 186 190 192 202 193 191 185 183 189 197 206 212 219 219 228 234 239 235 220 219 231 240 256 262 270 272 281 287 299 312 302 300 310 298 292 288 290 287 295 298 300
178 184 193 190 197 203 196 197 198 189 192 201 205 208 218 217 213 215 233 247 252 255 247 241 250 258 264 262 267 281 278 278 276 294 308 288 286 284 291 292 298 298 300
179 188 194 191 192 200 194 195 193 186 190 203 206 207 214 221 215 209 204 226 247 256 256 250 250 257 258 258 242 251 266 278 282 277 273 277 291 289 299 293 292 296 301
178 187 186 188 195 205 198 198 194 177 196 211 209 207 211 218 225 220 208 219 249 261 264 252 256 265 271 274 274 275 281 293 291 284 247 263 292 305 297 289 292 298 302
184 184 193 195 201 209 204 203 196 184 198 211 212 217 223 224 228 226 214 215 243 258 250 268 270 277 279 279 272 249 240 252 272 280 247 254 287 321 308 292 297 303 303